Location: Unspecified
(0.0000°N, 0.0000°E)
Time: 06:41:19
(UTC+00:00)

S-56A Canister/Altair - Pass Details

Date: 29 May 2024
Orbit: 637 x 2489 km, 38.9° (Epoch: 21 June)

Event Time Altitude Azimuth Distance (km) Brightness Sun altitude
Rises 13:48:52 0° 287° (WNW) 3,257 11.2 55.2°
Reaches altitude 10° 13:52:00 10° 271° (W) 2,162 10.4 54.6°
Maximum altitude 13:55:35 21° 222° (SW) 1,464 9.3 53.9°
Drops below altitude 10° 13:58:57 10° 172° (S) 2,017 9.5 53.3°
Sets 14:01:46 0° 155° (SSE) 2,971 10.2 52.7°
